Regional Weather Roundup
Issued by NWS

Home | Current Version | Previous Version | Text Only | Print | Product List | Glossary On
Versions: 1 2 3 4 5 6 7 8 9 10 11 12 13 14 15 16 17 18 19 20 21 22 23 24 25 26 27
000
ASUS44 KBMX 151610
RWRAL

ALABAMA REGIONAL WEATHER ROUNDUP
NATIONAL WEATHER SERVICE BIRMINGHAM AL
1000 AM CST FRI DEC 15 2017

NOTE: "FAIR" INDICATES FEW OR NO CLOUDS BELOW 12,000 FEET
WITH NO SIGNIFICANT WEATHER AND/OR OBSTRUCTIONS TO VISIBILITY.

THE REMARK "TC" DENOTES TEMPERATURE IN DEGREES CELSIUS.

ALZ001>011-014-016>018-020-151700-
NORTH ALABAMA

CITY           SKY/WX    TMP DP  RH WIND       PRES   REMARKS
MUSCLE SHOALS  CLOUDY    36  23  59 NW6       30.24R WCI  31
HUNTSVILLE     CLOUDY    35  25  66 NW15      30.20R WCI  25
DECATUR        CLOUDY    34  24  67 NW13      30.22R WCI  25
HALEYVILLE     FAIR      34  24  67 N12       30.22R WCI  25
GADSDEN        PTSUNNY   36  24  62 N10       30.19R WCI  28
$$

ALZ012-013-022-023-030>036-040>044-151700-
WEST CENTRAL ALABAMA

CITY           SKY/WX    TMP DP  RH WIND       PRES   REMARKS
TUSCALOOSA     CLOUDY    41  27  57 N7        30.26R
DEMOPOLIS        N/A     40  27  59 NW5       30.24F
$$

ALZ015-024>026-033>036-041>044-151700-
CENTRAL ALABAMA

CITY           SKY/WX    TMP DP  RH WIND       PRES   REMARKS
BIRMINGHAM     CLOUDY    36  24  62 N7        30.23R WCI  30
MONTGOMERY     CLOUDY    43  27  53 NW9       30.19R
SHELBY CO ARPT MOSUNNY   40  25  55 NW9       30.22R WCI  34
MAXWELL AFB    CLOUDY    43  28  54 N10       30.17R
GREENVILLE     FAIR      43  30  60 NW8       30.15R
SELMA          FAIR      43  25  49 N13G18    30.20S
PRATTVILLE     FAIR      41  25  53 NW10      30.19R
BESSEMER       FAIR      37  23  56 NW7       30.23R WCI  32
TALLADEGA      FAIR      38  24  56 N10G17    30.20R WCI  31
PELL CITY      SUNNY     39  23  52 N10       30.21R WCI  32
MARION         FAIR      39  27  62 N7        30.22S WCI  34
SYLACAUGA      FAIR      40  28  61 NW7       30.20R
$$

ALZ019-021-028-029-037-038-045>048-151700-
EAST CENTRAL ALABAMA

CITY           SKY/WX    TMP DP  RH WIND       PRES   REMARKS
ANNISTON       MOSUNNY   39  23  52 VRB5G18   30.18R
ALEXANDER CITY CLOUDY    39  29  65 N14G22    30.16R WCI  31
AUBURN         CLOUDY    41  33  73 NW12      30.14R
$$

ALZ051>064-151700-
SOUTHWEST ALABAMA

CITY           SKY/WX    TMP DP  RH WIND       PRES   REMARKS
MOBILE         CLOUDY    47  34  60 N9        30.22R
BROOKLEY FIELD CLOUDY    48  38  68 N10       30.22R
EVERGREEN      CLOUDY    43  34  70 N7        30.19R
$$

ALZ049-050-065>069-151700-
SOUTHEAST ALABAMA

CITY           SKY/WX    TMP DP  RH WIND       PRES   REMARKS
DOTHAN         NOT AVBL
OZARK          CLOUDY    47  39  74 NW7       30.14R
TROY           CLOUDY    43  35  73 NW8       30.16R
EUFAULA        FAIR      46  40  79 NW5       30.12R
$$




USA.gov is the U.S. government's official web portal to all federal, state and local government web resources and services.